Location: Noordwijk
(52.2400°N, 4.4500°E)
Time: 02:42:13
(UTC+00:00)

PCSat - Pass Details

Date: 12 December 2022
Orbit: 785 x 793 km, 67.0° (Epoch: 28 January)

Event Time Altitude Azimuth Distance (km) Brightness Sun altitude
Rises 18:53:46 0° 250° (WSW) 3,279 13.8 -29.8°
Reaches altitude 10° 18:56:23 10° 259° (W) 2,355 12.9 -30.2°
Maximum altitude 19:01:18 35° 325° (NW) 1,269 10.8 -31.0°
Enters shadow 19:01:45 34° 336° (NNW) 1,283 10.8 -31.1°
